Silver City, NM

3:47 AM MST on December 09, 2019 (GMT -0700)
Grant County

Weather History for KSVC - October, 2019

Change the Weather History Date:

Saturday, October 19, 2019

  Actual Average (KDMN) Record (KDMN)
Temperature  
Mean Temperature 56 °F -  
Max Temperature 72 °F 75 °F 87 °F (1950)
Min Temperature 40 °F 42 °F 33 °F (1968)
Degree Days  
Heating Degree Days 10    
Growing Degree Days 6 (Base 50)    
Moisture  
Dew Point 29 °F    
Average Humidity 42    
Maximum Humidity 77    
Minimum Humidity 13    
Precipitation  
Precipitation 0.00 in - - ()
Sea Level Pressure  
Sea Level Pressure 30.03 in    
Wind  
Wind Speed 9 mph (NW)    
Max Wind Speed 15 mph    
Max Gust Speed 20 mph    
Visibility 10 miles    
Events      
Averages and records for this station are not official NWS values.
T = Trace of Precipitation, MM = Missing Value Source: NWS Daily Summary

Daily Weather History Graph

Daily Weather History Graph

Search for Another Location

Airport or City:

Astronomy

Oct. 19, 2019 Rise Set
Actual Time 7:19 AM MDT 6:35 PM MDT
Civil Twilight 6:54 AM MDT 7:00 PM MDT
Nautical Twilight 6:25 AM MDT 7:28 PM MDT
Astronomical Twilight 5:57 AM MDT 7:57 PM MDT
Moon 11:00 PM MDT (10/19) 12:41 PM MDT (10/19)
Length of Visible Light 12h 05m
Length of Day
11h 15m
Waning Gibbous, 69% of the Moon is Illuminated
Oct 19
Waning Gibbous
Oct 21
Last Quarter
Oct 27
New
Nov 4
First Quarter
Nov 12
Full

Hourly Weather History & Observations

Time (MDT) Temp. Windchill Dew Point Humidity Pressure Visibility Wind Dir Wind Speed Gust Speed Precip Events Conditions
12:15 AM 46.8 °F - 34.2 °F 62% 30.02 in 10.0 mi North 9.2 mph - N/A   Clear
12:35 AM 45.9 °F 42.3 °F 34.7 °F 65% 30.02 in 10.0 mi North 6.9 mph - N/A   Clear
12:55 AM 45.1 °F 40.3 °F 34.7 °F 67% 30.02 in 10.0 mi North 9.2 mph - N/A   Clear
1:15 AM 47.7 °F - 34.0 °F 59% 30.01 in 10.0 mi North 12.7 mph - N/A   Clear
1:35 AM 47.5 °F - 33.8 °F 59% 30.02 in 10.0 mi North 10.4 mph - N/A   Clear
1:55 AM 48.9 °F - 34.7 °F 58% 30.02 in 10.0 mi North 11.5 mph - N/A   Clear
2:15 AM 48.4 °F - 34.7 °F 59% 30.02 in 10.0 mi North 10.4 mph - N/A   Clear
2:35 AM 46.4 °F 41.1 °F 34.3 °F 63% 30.03 in 10.0 mi West 11.5 mph - N/A   Clear
2:55 AM 47.5 °F - 34.7 °F 61% 30.04 in 10.0 mi NW 9.2 mph - N/A   Clear
3:15 AM 45.1 °F 40.3 °F 34.7 °F 67% 30.03 in 10.0 mi NNW 9.2 mph - N/A   Clear
3:35 AM 46.6 °F - 34.2 °F 62% 30.04 in 10.0 mi NW 12.7 mph - N/A   Clear
3:55 AM 48.0 °F - 33.8 °F 58% 30.03 in 10.0 mi NW 10.4 mph - N/A   Clear
4:15 AM 43.9 °F 38.3 °F 33.6 °F 67% 30.02 in 10.0 mi NNW 10.4 mph - N/A   Clear
4:35 AM 45.1 °F 39.9 °F 34.0 °F 65% 30.02 in 10.0 mi North 10.4 mph - N/A   Clear
4:55 AM 46.4 °F 42.4 °F 33.8 °F 62% 30.02 in 10.0 mi North 8.1 mph - N/A   Clear
5:15 AM 42.4 °F 38.1 °F 33.8 °F 71% 30.03 in 10.0 mi NNW 6.9 mph - N/A   Clear
5:35 AM 42.4 °F 37.5 °F 33.3 °F 70% 30.03 in 10.0 mi NNW 8.1 mph - N/A   Clear
5:55 AM 40.6 °F 34.8 °F 32.9 °F 74% 30.03 in 10.0 mi NNW 9.2 mph - N/A   Clear
6:15 AM 42.4 °F 37.0 °F 33.1 °F 69% 30.04 in 10.0 mi NNW 9.2 mph - N/A   Clear
6:35 AM 41.0 °F 35.8 °F 33.3 °F 74% 30.05 in 10.0 mi North 8.1 mph - N/A   Clear
6:55 AM 40.1 °F 34.7 °F 33.3 °F 77% 30.05 in 10.0 mi North 8.1 mph - N/A   Clear
7:35 AM 41.0 °F 35.8 °F 33.4 °F 74% 30.05 in 10.0 mi North 8.1 mph - N/A   Clear
7:55 AM 42.8 °F 38.0 °F 34.5 °F 73% 30.06 in 10.0 mi North 8.1 mph - N/A   Clear
8:15 AM 46.9 °F - 36.0 °F 66% 30.07 in 10.0 mi North 6.9 mph - N/A   Clear
8:35 AM 51.6 °F - 36.5 °F 56% 30.07 in 10.0 mi North 5.8 mph - N/A   Clear
8:55 AM 54.9 °F - 36.1 °F 49% 30.08 in 10.0 mi North 5.8 mph - N/A   Clear
9:15 AM 58.5 °F - 36.0 °F 43% 30.09 in 10.0 mi North 5.8 mph - N/A   Clear
9:35 AM 59.9 °F - 34.7 °F 39% 30.10 in 10.0 mi NW 8.1 mph - N/A   Clear
9:55 AM 61.5 °F - 34.5 °F 36% 30.10 in 10.0 mi WNW 9.2 mph - N/A   Clear
10:15 AM 62.6 °F - 33.8 °F 34% 30.10 in 10.0 mi WNW 8.1 mph - N/A   Clear
10:35 AM 64.0 °F - 33.3 °F 32% 30.10 in 10.0 mi West 8.1 mph - N/A   Clear
10:55 AM 65.1 °F - 33.1 °F 30% 30.09 in 10.0 mi West 5.8 mph - N/A   Clear
11:15 AM 65.5 °F - 32.9 °F 30% 30.09 in 10.0 mi NW 6.9 mph - N/A   Clear
11:35 AM 65.7 °F - 32.0 °F 29% 30.08 in 10.0 mi WNW 8.1 mph - N/A   Clear
11:55 AM 66.4 °F - 29.8 °F 25% 30.08 in 10.0 mi NNW 8.1 mph - N/A   Clear
12:15 PM 66.9 °F - 30.6 °F 26% 30.07 in 10.0 mi West 5.8 mph - N/A   Clear
12:35 PM 67.6 °F - 30.4 °F 25% 30.07 in 10.0 mi WNW 3.5 mph - N/A   Clear
12:55 PM 68.0 °F - 27.5 °F 22% 30.06 in 10.0 mi NW 4.6 mph - N/A   Clear
1:15 PM 68.0 °F - 26.1 °F 21% 30.04 in 10.0 mi SW 3.5 mph - N/A   Clear
1:35 PM 68.9 °F - 24.8 °F 19% 30.04 in 10.0 mi SW 3.5 mph - N/A   Clear
1:55 PM 69.6 °F - 26.4 °F 20% 30.03 in 10.0 mi West 4.6 mph - N/A   Clear
2:15 PM 71.4 °F - 28.8 °F 21% 30.02 in 10.0 mi West 4.6 mph - N/A   Clear
2:35 PM 70.9 °F - 28.9 °F 21% 30.00 in 10.0 mi SSW 10.4 mph - N/A   Clear
2:55 PM 71.2 °F - 28.9 °F 21% 30.00 in 10.0 mi Calm Calm - N/A   Clear
3:15 PM 70.9 °F - 29.1 °F 21% 30.00 in 10.0 mi West 5.8 mph - N/A   Clear
3:35 PM 71.2 °F - 25.9 °F 18% 29.99 in 10.0 mi West 6.9 mph - N/A   Clear
3:55 PM 71.8 °F - 22.6 °F 16% 29.99 in 10.0 mi West 15.0 mph - N/A   Clear
4:15 PM 71.6 °F - 21.0 °F 15% 29.99 in 10.0 mi West 11.5 mph 19.6 mph N/A   Clear
4:35 PM 70.9 °F - 19.2 °F 14% 29.99 in 10.0 mi West 9.2 mph 17.3 mph N/A   Clear
4:55 PM 70.2 °F - 19.4 °F 15% 29.98 in 10.0 mi West 13.8 mph 19.6 mph N/A   Clear
5:15 PM 69.8 °F - 19.2 °F 15% 29.98 in 10.0 mi West 12.7 mph 19.6 mph N/A   Clear
5:35 PM 68.7 °F - 20.5 °F 16% 29.98 in 10.0 mi West 13.8 mph 18.4 mph N/A   Clear
5:55 PM 67.8 °F - 15.4 °F 13% 29.99 in 10.0 mi West 12.7 mph - N/A   Clear
6:15 PM 66.2 °F - 22.1 °F 19% 29.98 in 10.0 mi West 8.1 mph - N/A   Clear
6:35 PM 63.9 °F - 23.2 °F 21% 29.98 in 10.0 mi West 10.4 mph - N/A   Clear
6:55 PM 60.3 °F - 23.5 °F 24% 29.98 in 10.0 mi West 8.1 mph - N/A   Clear
7:15 PM 58.1 °F - 24.3 °F 27% 29.99 in 10.0 mi West 8.1 mph - N/A   Clear
7:35 PM 55.0 °F - 24.8 °F 31% 30.00 in 10.0 mi West 10.4 mph - N/A   Clear
7:55 PM 54.5 °F - 24.8 °F 32% 30.00 in 10.0 mi WNW 9.2 mph - N/A   Clear
8:15 PM 50.9 °F - 24.8 °F 36% 30.00 in 10.0 mi NW 9.2 mph - N/A   Clear
8:35 PM 49.8 °F - 25.0 °F 38% 30.01 in 10.0 mi NNW 9.2 mph - N/A   Clear
8:55 PM 49.6 °F - 24.8 °F 38% 30.01 in 10.0 mi NNW 9.2 mph - N/A   Clear
9:15 PM 46.8 °F - 24.4 °F 42% 30.00 in 10.0 mi NW 9.2 mph - N/A   Clear
9:35 PM 45.7 °F 41.5 °F 24.6 °F 44% 30.00 in 10.0 mi NNW 8.1 mph - N/A   Clear
9:55 PM 43.5 °F 39.4 °F 24.8 °F 48% 29.99 in 10.0 mi NNW 6.9 mph - N/A   Clear
10:15 PM 43.7 °F 38.1 °F 25.5 °F 49% 30.00 in 10.0 mi NNW 10.4 mph - N/A   Clear
10:35 PM 45.1 °F 39.9 °F 26.1 °F 47% 30.00 in 10.0 mi NNW 10.4 mph - N/A   Clear
10:55 PM 46.6 °F - 26.1 °F 45% 29.99 in 10.0 mi NW 10.4 mph - N/A   Clear
11:15 PM 44.2 °F 38.8 °F 26.1 °F 49% 29.98 in 10.0 mi NNW 10.4 mph - N/A   Clear
11:35 PM 44.4 °F 38.6 °F 26.8 °F 50% 29.98 in 10.0 mi NNW 11.5 mph - N/A   Clear
11:55 PM 44.2 °F 38.8 °F 27.3 °F 51% 29.98 in 10.0 mi NNW 10.4 mph - N/A   Clear